Regional Weather Roundup
Issued by NWS

Home | Current Version | Previous Version | Graphics & Text | Print | Product List | Glossary On
Versions: 1 2 3 4 5 6 7 8 9 10 11 12 13 14 15 16 17 18 19 20 21 22 23 24 25 26 27 28 29 30 31 32 33 34 35 36 37 38 39 40 41 42 43 44 45 46 47 48 49 50
000
ASUS45 KCYS 270510
RWRWY

WYOMING REGIONAL WEATHER ROUNDUP
NATIONAL WEATHER SERVICE CHEYENNE WY
1100 PM MDT TUE AUG 26 2014

NOTE:  "FAIR" INDICATES FEW OR NO CLOUDS BELOW 12,000 FEET
WITH NO SIGNIFICANT WEATHER AND/OR OBSTRUCTIONS TO VISIBILITY.

WYZ001-270600-
YELLOWSTONE NATIONAL PARK

CITY           SKY/WX    TMP DP  RH WIND       PRES   REMARKS
LK YELLOWSTONE   N/A     39  36  89 CALM      30.38S
W YELLOWSTONE  NOT AVBL

$$
WYZ002>013-054>058-071-098>099-270600-
NORTHERN WYOMING

CITY           SKY/WX    TMP DP  RH WIND       PRES   REMARKS
JACKSON        PTCLDY    54  45  71 NW3       30.29R
CODY           PTCLDY    61  50  67 S5        30.20R
GREYBULL       CLEAR     63  49  60 SE6       30.13R
WORLAND        NOT AVBL
SHERIDAN       CLEAR     56  50  80 W3        30.17R
BUFFALO        CLEAR     57  48  72 CALM      30.23R
GILLETTE       PTCLDY    54  51  90 S5        30.19S
HULETT         FAIR      59  54  82 MISG      30.21
NEWCASTLE      FAIR      64  54  68 CALM      30.19

$$
WYZ014>020-022>026-101>103-270600-
CENTRAL WYOMING

CITY           SKY/WX    TMP DP  RH WIND       PRES   REMARKS
BIG PINEY      CLOUDY    51  46  83 NE5       30.32S
PINEDALE       CLOUDY    50  45  81 CALM      30.33F
DUBOIS         FAIR      50  39  66 W5        30.33R
LANDER         MOCLDY    63  46  54 W8        30.22R
RIVERTON       CLOUDY    65  45  48 N6        30.23R
CASPER         PTCLDY    59  49  69 NE8       30.23R
DOUGLAS        PTCLDY    63  53  70 E10G21    30.21S

$$
WYZ021-027>030-104>119-270600-
SOUTHERN WYOMING

CITY           SKY/WX    TMP DP  RH WIND       PRES   REMARKS
EVANSTON       MOCLDY    55  43  63 NE5       30.30S
KEMMERER       CLOUDY    54  45  71 N5        30.33S
FORT BRIDGER   CLOUDY    55  47  76 E7        30.33S
ROCK SPRINGS   CLOUDY    54  42  64 CALM      30.30S
DIXON          FAIR      54  50  86 E3        30.31F
RAWLINS        PTCLDY    57  45  64 W6        30.28F
SARATOGA       FAIR      54  50  87 MISG      30.31F
LARAMIE        PTCLDY    56  43  61 CALM      30.31S
CHEYENNE       MOCLDY    58  52  80 SE5       30.26S
TORRINGTON     PTCLDY    62  51  67 N10       30.13S
PINE BLUFFS    FAIR      59  52  77 CALM      30.22S

$$


USA.gov is the U.S. government's official web portal to all federal, state and local government web resources and services.